Weather History for Lawrence, MA

Change the Weather History Date:

Tuesday, September 3, 2013

  Actual Average Record
Temperature  
Mean Temperature 74 °F -  
Max Temperature 82 °F 76 °F 94 °F (1929)
Min Temperature 66 °F 56 °F 39 °F (1991)
Cooling Degree Days 9    
Growing Degree Days 24 (Base 50)    
Moisture  
Dew Point 66 °F    
Average Humidity 75    
Maximum Humidity 90    
Minimum Humidity 54    
Precipitation  
Precipitation 0.00 in - - ()
Sea Level Pressure  
Sea Level Pressure 29.75 in    
Wind  
Wind Speed 5 mph (WSW)    
Max Wind Speed 12 mph    
Max Gust Speed 20 mph    
Visibility 9 miles    
Events Rain    
Averages and records for this station are not official NWS values.
T = Trace of Precipitation, MM = Missing Value Source: NWS Daily Summary

Daily Weather History Graph

Daily Weather History Graph

Search for Another Location

Airport:

Trip Planner

Search our weather history database for the weather conditions in past years. The results will help you decide how hot, cold, wet, or windy it might be!

Date:

Astronomy

Sep. 03, 2013 Rise Set
Actual Time 6:11 AM EDT 7:15 PM EDT
Civil Twilight 5:42 AM EDT 7:43 PM EDT
Nautical Twilight 5:08 AM EDT 8:18 PM EDT
Astronomical Twilight 4:31 AM EDT 8:54 PM EDT
Moon 4:21 AM EDT (9/3) 6:01 PM EDT (9/3)
Length of Visible Light 14h 01m
Length of Day
13h 03m
Waning Crescent, 3% of the Moon is Illuminated
Sep 3
Waning Crescent
Sep 5
New
Sep 12
First Quarter
Sep 19
Full
Sep 26
Last Quarter

Hourly Weather History & Observations

Time (EDT) Temp. Heat Index Dew Point Humidity Pressure Visibility Wind Dir Wind Speed Gust Speed Precip Events Conditions
12:54 AM 73.0 °F - 70.0 °F 90% 29.74 in 6.0 mi SSW 5.8 mph - N/A   Overcast
1:02 AM 73.4 °F - 69.8 °F 88% 29.74 in 6.0 mi Calm Calm - N/A   Overcast
1:54 AM 73.9 °F - 70.0 °F 87% 29.73 in 6.0 mi WSW 5.8 mph - N/A   Overcast
2:22 AM 73.4 °F - 69.8 °F 88% 29.74 in 6.0 mi SW 4.6 mph - N/A   Overcast
2:54 AM 73.9 °F - 70.0 °F 87% 29.73 in 7.0 mi SW 5.8 mph - N/A   Overcast
3:54 AM 73.9 °F - 69.1 °F 85% 29.71 in 9.0 mi West 5.8 mph - N/A   Overcast
4:13 AM 73.4 °F - 69.8 °F 88% 29.72 in 9.0 mi SW 5.8 mph - N/A   Overcast
4:32 AM 73.4 °F - 69.8 °F 88% 29.72 in 10.0 mi WSW 5.8 mph - N/A   Overcast
4:54 AM 73.0 °F - 68.0 °F 84% 29.72 in 10.0 mi West 3.5 mph - N/A   Overcast
5:13 AM 71.6 °F - 66.2 °F 83% 29.73 in 10.0 mi WSW 3.5 mph - N/A   Scattered Clouds
5:54 AM 72.0 °F - 66.9 °F 84% 29.73 in 9.0 mi Calm Calm - N/A   Partly Cloudy
6:18 AM 71.6 °F - 68.0 °F 88% 29.75 in 8.0 mi West 4.6 mph - N/A   Mostly Cloudy
6:54 AM 72.0 °F - 68.0 °F 87% 29.75 in 4.0 mi West 4.6 mph - N/A   Overcast
7:54 AM 72.0 °F - 68.0 °F 87% 29.77 in 5.0 mi WSW 4.6 mph - N/A   Overcast
8:24 AM 73.4 °F - 66.2 °F 78% 29.79 in 9.0 mi WSW 6.9 mph - N/A   Overcast
8:51 AM 75.2 °F - 66.2 °F 73% 29.79 in 10.0 mi WSW 3.5 mph - N/A   Scattered Clouds
8:54 AM 75.0 °F - 66.9 °F 76% 29.79 in 10.0 mi SSW 3.5 mph - N/A   Scattered Clouds
9:54 AM 77.0 °F - 64.9 °F 66% 29.79 in 10.0 mi West 3.5 mph - N/A   Clear
10:54 AM 78.1 °F - 64.0 °F 62% 29.78 in 10.0 mi Calm Calm - N/A   Clear
11:54 AM 81.0 °F 82.7 °F 64.9 °F 58% 29.76 in 10.0 mi Variable 3.5 mph - N/A   Scattered Clouds
12:54 PM 82.0 °F 83.4 °F 64.0 °F 54% 29.75 in 10.0 mi SSW 9.2 mph - N/A   Mostly Cloudy
1:54 PM 80.1 °F 81.9 °F 64.9 °F 60% 29.75 in 10.0 mi SSW 8.1 mph - N/A   Overcast
2:54 PM 82.0 °F 84.1 °F 66.0 °F 58% 29.73 in 10.0 mi SSW 10.4 mph - N/A   Overcast
3:54 PM 80.1 °F 82.1 °F 66.0 °F 62% 29.73 in 10.0 mi SSW 11.5 mph - N/A   Mostly Cloudy
4:54 PM 79.0 °F - 68.0 °F 69% 29.73 in 10.0 mi SSW 9.2 mph 19.6 mph 0.00 in   Overcast
5:05 PM 78.8 °F - 68.0 °F 69% 29.73 in 10.0 mi SW 11.5 mph - 0.00 in Rain Light Rain
5:54 PM 75.0 °F - 66.0 °F 73% 29.74 in 10.0 mi WNW 9.2 mph - 0.00 in   Overcast
6:22 PM 73.4 °F - 62.6 °F 69% 29.74 in 10.0 mi West 6.9 mph 16.1 mph N/A   Overcast
6:54 PM 73.9 °F - 62.1 °F 66% 29.75 in 10.0 mi West 6.9 mph - N/A   Overcast
7:54 PM 73.0 °F - 61.0 °F 66% 29.77 in 10.0 mi West 8.1 mph - N/A   Overcast
8:54 PM 72.0 °F - 57.9 °F 61% 29.79 in 10.0 mi WSW 5.8 mph - N/A   Mostly Cloudy
9:54 PM 69.1 °F - 57.9 °F 68% 29.81 in 10.0 mi WSW 6.9 mph - N/A   Clear
10:54 PM 66.9 °F - 55.9 °F 68% 29.82 in 10.0 mi WSW 6.9 mph - N/A   Clear
11:54 PM 66.0 °F - 55.0 °F 68% 29.82 in 10.0 mi WSW 5.8 mph - N/A   Clear